| time (UTC) | temp F | wind direction | speed MPH | gust MPH | rain 1hr in | rain 24hr in | rain mn in | humidity % | barometer mb |
| 20260904054017 | 64 | 184 | 8.0 | 22.0 | 0.00 | 0.00 | 0.00 | 35 | 1015.7 |
| 20260904053516 | 64 | 194 | 8.0 | 22.0 | 0.00 | 0.00 | 0.00 | 35 | 1015.7 |
| 20260904053016 | 64 | 204 | 6.0 | 15.0 | 0.00 | 0.00 | 0.00 | 35 | 1015.7 |
| 20260904052516 | 64 | 150 | 8.0 | 15.0 | 0.00 | 0.00 | 0.00 | 34 | 1015.7 |
| 20260904052016 | 65 | 183 | 5.0 | 14.0 | 0.00 | 0.00 | 0.00 | 34 | 1015.8 |
| 20260904051520 | 65 | 169 | 6.0 | 16.0 | 0.00 | 0.00 | 0.00 | 34 | 1015.8 |
| 20260904051015 | 65 | 175 | 4.0 | 17.0 | 0.00 | 0.00 | 0.00 | 34 | 1015.8 |
| 20260904050515 | 65 | 134 | 8.0 | 17.0 | 0.00 | 0.00 | 0.00 | 34 | 1015.7 |
| 20260904050015 | 65 | 156 | 4.0 | 15.0 | 0.00 | 0.00 | 0.00 | 34 | 1015.8 |
| 20260904045515 | 65 | 163 | 10.0 | 18.0 | 0.00 | 0.00 | 0.00 | 34 | 1015.7 |
| 20260904045015 | 65 | 223 | 8.0 | 18.0 | 0.00 | 0.00 | 0.00 | 33 | 1015.6 |
| 20260904044516 | 65 | 182 | 6.0 | 15.0 | 0.00 | 0.00 | 0.00 | 33 | 1015.6 |
| 20260904044017 | 65 | 194 | 6.0 | 26.0 | 0.00 | 0.00 | 0.00 | 33 | 1015.7 |
| 20260904043514 | 66 | 146 | 6.0 | 26.0 | 0.00 | 0.00 | 0.00 | 33 | 1015.7 |
| 20260904043014 | 66 | 176 | 7.0 | 16.0 | 0.00 | 0.00 | 0.00 | 34 | 1015.4 |
| 20260904042515 | 66 | 169 | 8.0 | 16.0 | 0.00 | 0.00 | 0.00 | 34 | 1015.5 |
| 20260904042012 | 66 | 165 | 6.0 | 12.0 | 0.00 | 0.00 | 0.00 | 34 | 1015.5 |
| 20260904041512 | 66 | 217 | 6.0 | 16.0 | 0.00 | 0.00 | 0.00 | 34 | 1015.5 |
| 20260904041017 | 66 | 234 | 9.0 | 16.0 | 0.00 | 0.00 | 0.00 | 34 | 1015.5 |
| 20260904040513 | 66 | 186 | 8.0 | 16.0 | 0.00 | 0.00 | 0.00 | 35 | 1015.4 |
| 20260904040013 | 65 | 193 | 9.0 | 19.0 | 0.00 | 0.00 | 0.00 | 35 | 1015.1 |
| 20260904035513 | 65 | 188 | 5.0 | 17.0 | 0.00 | 0.00 | 0.00 | 39 | 1015.0 |
| 20260904035012 | 65 | 223 | 10.0 | 17.0 | 0.00 | 0.00 | 0.00 | 37 | 1015.0 |
| 20260904034511 | 65 | 239 | 8.0 | 18.0 | 0.00 | 0.00 | 0.00 | 40 | 1015.0 |
| 20260904034012 | 65 | 241 | 11.0 | 19.0 | 0.00 | 0.00 | 0.00 | 39 | 1014.9 |
| 20260904033511 | 65 | 247 | 9.0 | 22.0 | 0.00 | 0.00 | 0.00 | 40 | 1014.8 |
| 20260904033010 | 65 | 191 | 12.0 | 23.0 | 0.00 | 0.00 | 0.00 | 40 | 1014.7 |
| 20260904032512 | 65 | 251 | 13.0 | 23.0 | 0.00 | 0.00 | 0.00 | 41 | 1014.5 |
| 20260904032014 | 65 | 184 | 10.0 | 26.0 | 0.00 | 0.00 | 0.00 | 40 | 1014.5 |
| 20260904031510 | 65 | 246 | 10.0 | 26.0 | 0.00 | 0.00 | 0.00 | 40 | 1014.5 |
| 20260904031009 | 65 | 238 | 9.0 | 18.0 | 0.00 | 0.00 | 0.00 | 40 | 1014.7 |
| 20260904030510 | 65 | 234 | 6.0 | 16.0 | 0.00 | 0.00 | 0.00 | 40 | 1014.6 |
| 20260904030009 | 65 | 221 | 5.0 | 10.0 | 0.00 | 0.00 | 0.00 | 40 | 1014.7 |
| 20260904025509 | 65 | 227 | 5.0 | 12.0 | 0.00 | 0.00 | 0.00 | 40 | 1014.6 |
| 20260904025008 | 65 | 193 | 4.0 | 18.0 | 0.00 | 0.00 | 0.00 | 40 | 1014.6 |
| 20260904024507 | 65 | 284 | 6.0 | 18.0 | 0.00 | 0.00 | 0.00 | 40 | 1014.7 |
| 20260904024007 | 65 | 223 | 8.0 | 18.0 | 0.00 | 0.00 | 0.00 | 39 | 1014.7 |
| 20260904023508 | 66 | 199 | 11.0 | 21.0 | 0.00 | 0.00 | 0.00 | 39 | 1014.7 |
| 20260904023008 | 66 | 258 | 12.0 | 21.0 | 0.00 | 0.00 | 0.00 | 39 | 1014.6 |
| 20260904022508 | 66 | 259 | 8.0 | 17.0 | 0.00 | 0.00 | 0.00 | 39 | 1014.5 |
| 20260904022009 | 66 | 265 | 6.0 | 17.0 | 0.00 | 0.00 | 0.00 | 38 | 1014.4 |
| 20260904021507 | 66 | 240 | 10.0 | 17.0 | 0.00 | 0.00 | 0.00 | 37 | 1014.4 |
| 20260904021007 | 66 | 246 | 3.0 | 12.0 | 0.00 | 0.00 | 0.00 | 37 | 1014.4 |
| 20260904020506 | 67 | 246 | 4.0 | 18.0 | 0.00 | 0.00 | 0.00 | 36 | 1014.5 |
| 20260904020006 | 67 | 244 | 6.0 | 18.0 | 0.00 | 0.00 | 0.00 | 35 | 1014.6 |
| 20260904015505 | 67 | 244 | 9.0 | 13.0 | 0.00 | 0.00 | 0.00 | 35 | 1014.4 |
| 20260904015007 | 68 | 260 | 8.0 | 14.0 | 0.00 | 0.00 | 0.00 | 34 | 1014.6 |
| 20260904014505 | 68 | 232 | 5.0 | 14.0 | 0.00 | 0.00 | 0.00 | 33 | 1014.5 |
| 20260904014004 | 68 | 192 | 9.0 | 18.0 | 0.00 | 0.00 | 0.00 | 33 | 1014.6 |
| 20260904013503 | 69 | 247 | 11.0 | 23.0 | 0.00 | 0.00 | 0.00 | 32 | 1014.5 |
| 20260904013004 | 70 | 180 | 7.0 | 17.0 | 0.00 | 0.00 | 0.00 | 30 | 1014.6 |
| 20260904012506 | 70 | 227 | 5.0 | 15.0 | 0.00 | 0.00 | 0.00 | 31 | 1014.7 |
| 20260904012005 | 70 | 250 | 9.0 | 15.0 | 0.00 | 0.00 | 0.00 | 30 | 1014.8 |
| 20260904011504 | 70 | 233 | 9.0 | 19.0 | 0.00 | 0.00 | 0.00 | 29 | 1014.8 |
| 20260904011006 | 70 | 182 | 8.0 | 19.0 | 0.00 | 0.00 | 0.00 | 30 | 1014.9 |
| 20260904010502 | 70 | 192 | 8.0 | 16.0 | 0.00 | 0.00 | 0.00 | 29 | 1014.9 |
| 20260904010002 | 71 | 173 | 10.0 | 26.0 | 0.00 | 0.00 | 0.00 | 29 | 1014.9 |
| 20260904005501 | 71 | 240 | 9.0 | 26.0 | 0.00 | 0.00 | 0.00 | 29 | 1015.0 |
| 20260904005001 | 71 | 191 | 11.0 | 21.0 | 0.00 | 0.00 | 0.00 | 28 | 1015.0 |
| 20260904004501 | 71 | 225 | 12.0 | 21.0 | 0.00 | 0.00 | 0.00 | 28 | 1015.0 |
| 20260904004001 | 72 | 238 | 12.0 | 22.0 | 0.00 | 0.00 | 0.00 | 28 | 1014.9 |
| 20260904003503 | 72 | 232 | 13.0 | 22.0 | 0.00 | 0.00 | 0.00 | 27 | 1014.9 |
| 20260904003105 | 72 | 220 | 13.0 | 23.0 | 0.00 | 0.00 | 0.00 | 28 | 1015.1 |
| 20260904003001 | 73 | 248 | 12.0 | 23.0 | 0.00 | 0.00 | 0.00 | 28 | 1014.9 |
| 20260904002600 | 72 | 235 | 13.0 | 22.0 | 0.00 | 0.00 | 0.00 | 28 | 1014.9 |
| 20260904002103 | 72 | 183 | 10.0 | 21.0 | 0.00 | 0.00 | 0.00 | 28 | 1014.8 |
| 20260904001601 | 72 | 171 | 10.0 | 22.0 | 0.00 | 0.00 | 0.00 | 28 | 1014.8 |
| 20260904001100 | 73 | 194 | 14.0 | 24.0 | 0.00 | 0.00 | 0.00 | 27 | 1014.7 |
| 20260904000604 | 73 | 189 | 11.0 | 24.0 | 0.00 | 0.00 | 0.00 | 27 | 1014.8 |
| 20260904000140 | 73 | 192 | 11.0 | 22.0 | 0.00 | 0.00 | 0.00 | 27 | 1014.8 |
| 20260903235559 | 73 | 276 | 11.0 | 20.0 | 0.00 | 0.00 | 0.00 | 27 | 1014.7 |
| 20260903235057 | 73 | 188 | 9.0 | 15.0 | 0.00 | 0.00 | 0.00 | 27 | 1014.8 |
| 20260903234558 | 74 | 223 | 8.0 | 20.0 | 0.00 | 0.00 | 0.00 | 26 | 1014.8 |
| 20260903234057 | 73 | 148 | 9.0 | 20.0 | 0.00 | 0.00 | 0.00 | 27 | 1014.9 |
| 20260903233559 | 73 | 229 | 10.0 | 17.0 | 0.00 | 0.00 | 0.00 | 26 | 1014.9 |
| 20260903233057 | 74 | 189 | 10.0 | 22.0 | 0.00 | 0.00 | 0.00 | 26 | 1015.0 |
| 20260903232556 | 74 | 232 | 12.0 | 22.0 | 0.00 | 0.00 | 0.00 | 26 | 1015.1 |
| 20260903232100 | 74 | 229 | 12.0 | 24.0 | 0.00 | 0.00 | 0.00 | 26 | 1015.2 |
| 20260903231608 | 74 | 188 | 12.0 | 24.0 | 0.00 | 0.00 | 0.00 | 25 | 1015.1 |
| 20260903231054 | 75 | 250 | 12.0 | 22.0 | 0.00 | 0.00 | 0.00 | 25 | 1015.1 |
| 20260903230555 | 75 | 257 | 11.0 | 22.0 | 0.00 | 0.00 | 0.00 | 26 | 1015.2 |
| 20260903230103 | 75 | 205 | 11.0 | 25.0 | 0.00 | 0.00 | 0.00 | 25 | 1015.2 |
| 20260903225556 | 74 | 245 | 12.0 | 23.0 | 0.00 | 0.00 | 0.00 | 26 | 1015.3 |
| 20260903225053 | 75 | 209 | 9.0 | 23.0 | 0.00 | 0.00 | 0.00 | 25 | 1015.3 |
| 20260903224556 | 75 | 215 | 12.0 | 23.0 | 0.00 | 0.00 | 0.00 | 25 | 1015.4 |
| 20260903224055 | 75 | 225 | 11.0 | 26.0 | 0.00 | 0.00 | 0.00 | 25 | 1015.5 |
| 20260903223552 | 75 | 248 | 13.0 | 26.0 | 0.00 | 0.00 | 0.00 | 25 | 1015.4 |
| 20260903223053 | 74 | 172 | 11.0 | 20.0 | 0.00 | 0.00 | 0.00 | 25 | 1015.3 |
| 20260903222555 | 74 | 168 | 12.0 | 24.0 | 0.00 | 0.00 | 0.00 | 25 | 1015.2 |
| 20260903222051 | 74 | 227 | 11.0 | 24.0 | 0.00 | 0.00 | 0.00 | 25 | 1015.3 |
| 20260903221552 | 75 | 223 | 14.0 | 24.0 | 0.00 | 0.00 | 0.00 | 25 | 1015.3 |
| 20260903221051 | 75 | 246 | 12.0 | 20.0 | 0.00 | 0.00 | 0.00 | 25 | 1015.3 |
| 20260903220551 | 75 | 218 | 10.0 | 21.0 | 0.00 | 0.00 | 0.00 | 26 | 1015.4 |
| 20260903220106 | 76 | 240 | 12.0 | 21.0 | 0.00 | 0.00 | 0.00 | 24 | 1015.3 |
| 20260903215549 | 75 | 178 | 10.0 | 20.0 | 0.00 | 0.00 | 0.00 | 25 | 1015.5 |
| 20260903215050 | 74 | 213 | 9.0 | 20.0 | 0.00 | 0.00 | 0.00 | 25 | 1015.5 |
| 20260903214553 | 75 | 216 | 13.0 | 24.0 | 0.00 | 0.00 | 0.00 | 24 | 1015.6 |
| 20260903214048 | 75 | 198 | 11.0 | 24.0 | 0.00 | 0.00 | 0.00 | 24 | 1015.7 |
| 20260903213548 | 74 | 211 | 11.0 | 23.0 | 0.00 | 0.00 | 0.00 | 25 | 1015.5 |
| 20260903213050 | 73 | 200 | 13.0 | 22.0 | 0.00 | 0.00 | 0.00 | 25 | 1015.6 |
| 20260903212546 | 72 | 190 | 12.0 | 22.0 | 0.00 | 0.00 | 0.00 | 25 | 1015.7 |
| 20260903212046 | 73 | 230 | 13.0 | 23.0 | 0.00 | 0.00 | 0.00 | 25 | 1015.6 |
| 20260903211545 | 73 | 172 | 7.0 | 16.0 | 0.00 | 0.00 | 0.00 | 25 | 1015.7 |
| 20260903211044 | 73 | 244 | 8.0 | 15.0 | 0.00 | 0.00 | 0.00 | 25 | 1015.9 |
| 20260903210544 | 74 | 197 | 9.0 | 22.0 | 0.00 | 0.00 | 0.00 | 24 | 1015.9 |
| 20260903210049 | 75 | 192 | 11.0 | 18.0 | 0.00 | 0.00 | 0.00 | 23 | 1016.2 |
| 20260903205542 | 75 | 180 | 10.0 | 23.0 | 0.00 | 0.00 | 0.00 | 24 | 1016.2 |
| 20260903205042 | 75 | 223 | 11.0 | 20.0 | 0.00 | 0.00 | 0.00 | 24 | 1016.3 |
| 20260903204542 | 74 | 225 | 8.0 | 18.0 | 0.00 | 0.00 | 0.00 | 24 | 1016.4 |
| 20260903204040 | 74 | 182 | 9.0 | 17.0 | 0.00 | 0.00 | 0.00 | 24 | 1016.5 |
| 20260903203543 | 73 | 175 | 7.0 | 17.0 | 0.00 | 0.00 | 0.00 | 25 | 1016.4 |
| 20260903203043 | 73 | 235 | 10.0 | 18.0 | 0.00 | 0.00 | 0.00 | 25 | 1016.6 |
| 20260903202540 | 74 | 217 | 8.0 | 17.0 | 0.00 | 0.00 | 0.00 | 24 | 1016.5 |
| 20260903202039 | 73 | 173 | 3.0 | 11.0 | 0.00 | 0.00 | 0.00 | 24 | 1016.6 |
| 20260903201539 | 72 | 245 | 5.0 | 19.0 | 0.00 | 0.00 | 0.00 | 25 | 1016.7 |
| 20260903201037 | 72 | 170 | 6.0 | 19.0 | 0.00 | 0.00 | 0.00 | 23 | 1016.9 |
| 20260903200538 | 72 | 203 | 11.0 | 20.0 | 0.00 | 0.00 | 0.00 | 23 | 1017.1 |
| 20260903200037 | 72 | 250 | 9.0 | 21.0 | 0.00 | 0.00 | 0.00 | 23 | 1017.0 |
| 20260903195536 | 72 | 168 | 9.0 | 22.0 | 0.00 | 0.00 | 0.00 | 23 | 1017.2 |
| 20260903195036 | 73 | 186 | 11.0 | 19.0 | 0.00 | 0.00 | 0.00 | 22 | 1017.2 |
| 20260903194546 | 73 | 188 | 8.0 | 23.0 | 0.00 | 0.00 | 0.00 | 23 | 1017.3 |
| 20260903194036 | 73 | 204 | 12.0 | 22.0 | 0.00 | 0.00 | 0.00 | 22 | 1017.5 |
| 20260903193536 | 74 | 200 | 11.0 | 22.0 | 0.00 | 0.00 | 0.00 | 22 | 1017.5 |
| 20260903193038 | 74 | 164 | 11.0 | 22.0 | 0.00 | 0.00 | 0.00 | 22 | 1017.5 |
| 20260903192536 | 75 | 198 | 10.0 | 21.0 | 0.00 | 0.00 | 0.00 | 22 | 1017.6 |
| 20260903192033 | 75 | 158 | 11.0 | 24.0 | 0.00 | 0.00 | 0.00 | 22 | 1017.5 |
| 20260903191541 | 74 | 202 | 12.0 | 24.0 | 0.00 | 0.00 | 0.00 | 23 | 1017.7 |
| 20260903191034 | 73 | 200 | 2.0 | 21.0 | 0.00 | 0.00 | 0.00 | 23 | 1017.8 |
| 20260903190530 | 72 | 213 | 6.0 | 26.0 | 0.00 | 0.00 | 0.00 | 23 | 1018.0 |
| 20260903190030 | 71 | 162 | 14.0 | 26.0 | 0.00 | 0.00 | 0.00 | 23 | 1018.0 |
| 20260903185528 | 70 | 160 | 8.0 | 19.0 | 0.00 | 0.00 | 0.00 | 24 | 1018.1 |
| 20260903185127 | 70 | 157 | 5.0 | 19.0 | 0.00 | 0.00 | 0.00 | 23 | 1018.3 |
| 20260903184527 | 70 | 173 | 6.0 | 21.0 | 0.00 | 0.00 | 0.00 | 24 | 1018.4 |
| 20260903184026 | 71 | 146 | 4.0 | 18.0 | 0.00 | 0.00 | 0.00 | 23 | 1018.5 |
| 20260903183527 | 71 | 178 | 9.0 | 18.0 | 0.00 | 0.00 | 0.00 | 23 | 1018.8 |
| 20260903183024 | 71 | 163 | 4.0 | 14.0 | 0.00 | 0.00 | 0.00 | 23 | 1018.8 |
| 20260903182522 | 71 | 189 | 8.0 | 14.0 | 0.00 | 0.00 | 0.00 | 22 | 1019.0 |
| 20260903182023 | 70 | 172 | 6.0 | 14.0 | 0.00 | 0.00 | 0.00 | 23 | 1018.9 |
| 20260903181536 | 70 | 188 | 9.0 | 19.0 | 0.00 | 0.00 | 0.00 | 23 | 1019.1 |
| 20260903181022 | 70 | 163 | 14.0 | 21.0 | 0.00 | 0.00 | 0.00 | 23 | 1019.1 |
| 20260903180522 | 69 | 186 | 7.0 | 15.0 | 0.00 | 0.00 | 0.00 | 24 | 1019.2 |
| 20260903180022 | 69 | 207 | 7.0 | 17.0 | 0.00 | 0.00 | 0.00 | 24 | 1019.3 |
| 20260903175521 | 69 | 157 | 7.0 | 14.0 | 0.00 | 0.00 | 0.00 | 24 | 1019.2 |
| 20260903175021 | 69 | 155 | 1.0 | 17.0 | 0.00 | 0.00 | 0.00 | 24 | 1019.2 |
| 20260903174521 | 69 | 159 | 11.0 | 17.0 | 0.00 | 0.00 | 0.00 | 23 | 1019.4 |
| 20260903174020 | 69 | 202 | 1.0 | 19.0 | 0.00 | 0.00 | 0.00 | 23 | 1019.4 |
| 20260903173521 | 69 | 144 | 10.0 | 19.0 | 0.00 | 0.00 | 0.00 | 23 | 1019.5 |
| 20260903173019 | 68 | 159 | 8.0 | 19.0 | 0.00 | 0.00 | 0.00 | 24 | 1019.4 |
| 20260903172520 | 67 | 221 | 9.0 | 19.0 | 0.00 | 0.00 | 0.00 | 24 | 1019.5 |
| 20260903172019 | 67 | 203 | 9.0 | 15.0 | 0.00 | 0.00 | 0.00 | 25 | 1019.5 |
| 20260903171530 | 67 | 174 | 7.0 | 15.0 | 0.00 | 0.00 | 0.00 | 24 | 1019.6 |
| 20260903171017 | 67 | 163 | 8.0 | 15.0 | 0.00 | 0.00 | 0.00 | 24 | 1019.6 |
| 20260903170517 | 67 | 171 | 9.0 | 18.0 | 0.00 | 0.00 | 0.00 | 24 | 1019.7 |
| 20260903170017 | 68 | 180 | 5.0 | 20.0 | 0.00 | 0.00 | 0.00 | 24 | 1019.7 |
| 20260903165516 | 68 | 153 | 9.0 | 20.0 | 0.00 | 0.00 | 0.00 | 23 | 1019.9 |
| 20260903165015 | 68 | 208 | 4.0 | 17.0 | 0.00 | 0.00 | 0.00 | 23 | 1019.9 |
| 20260903164515 | 68 | 175 | 5.0 | 17.0 | 0.00 | 0.00 | 0.00 | 23 | 1019.9 |
| 20260903164015 | 69 | 210 | 10.0 | 17.0 | 0.00 | 0.00 | 0.00 | 22 | 1019.8 |
| 20260903163517 | 70 | 190 | 4.0 | 11.0 | 0.00 | 0.00 | 0.00 | 21 | 1019.9 |
| 20260903163016 | 71 | 21 | 0.0 | 3.0 | 0.00 | 0.00 | 0.00 | 21 | 1019.9 |
| 20260903162511 | 70 | 82 | 0.0 | 1.0 | 0.00 | 0.00 | 0.00 | 21 | 1020.0 |
| 20260903162014 | 69 | 25 | 0.0 | 4.0 | 0.00 | 0.00 | 0.00 | 22 | 1020.0 |
| 20260903161509 | 68 | 5 | 0.0 | 4.0 | 0.00 | 0.00 | 0.00 | 23 | 1020.1 |
| 20260903161007 | 66 | 9 | 0.0 | 1.0 | 0.00 | 0.00 | 0.00 | 25 | 1020.3 |
| 20260903160508 | 65 | 350 | 0.0 | 1.0 | 0.00 | 0.00 | 0.00 | 26 | 1020.4 |
| 20260903160007 | 65 | 236 | 0.0 | 0.0 | 0.00 | 0.00 | 0.00 | 25 | 1020.5 |
| 20260903155504 | 64 | 178 | 0.0 | 2.0 | 0.00 | 0.00 | 0.00 | 25 | 1020.6 |
| 20260903155004 | 64 | 190 | 0.0 | 2.0 | 0.00 | 0.00 | 0.00 | 25 | 1020.7 |
| 20260903154504 | 64 | 217 | 0.0 | 0.0 | 0.00 | 0.00 | 0.00 | 26 | 1020.7 |
| 20260903154004 | 63 | 205 | 0.0 | 2.0 | 0.00 | 0.00 | 0.00 | 26 | 1020.9 |
| 20260903153502 | 62 | 215 | 0.0 | 6.0 | 0.00 | 0.00 | 0.00 | 26 | 1020.9 |
| 20260903153002 | 62 | 220 | 1.0 | 7.0 | 0.00 | 0.00 | 0.00 | 26 | 1021.0 |
| 20260903152506 | 63 | 271 | 4.0 | 7.0 | 0.00 | 0.00 | 0.00 | 26 | 1021.0 |
| 20260903152002 | 63 | 271 | 1.0 | 5.0 | 0.00 | 0.00 | 0.00 | 25 | 1021.0 |
| 20260903151103 | 62 | 232 | 0.0 | 9.0 | 0.00 | 0.00 | 0.00 | 26 | 1021.0 |
| 20260903150559 | 62 | 245 | 1.0 | 8.0 | 0.00 | 0.00 | 0.00 | 26 | 1020.9 |
| 20260903150116 | 61 | 200 | 1.0 | 7.0 | 0.00 | 0.00 | 0.00 | 26 | 1020.8 |
| 20260903145555 | 61 | 254 | 0.0 | 6.0 | 0.00 | 0.00 | 0.00 | 28 | 1020.9 |
| 20260903145054 | 60 | 215 | 0.0 | 4.0 | 0.00 | 0.00 | 0.00 | 27 | 1020.8 |
| 20260903144554 | 59 | 238 | 0.0 | 4.0 | 0.00 | 0.00 | 0.00 | 29 | 1020.9 |
| 20260903144052 | 57 | 209 | 0.0 | 2.0 | 0.00 | 0.00 | 0.00 | 32 | 1020.8 |
| 20260903143552 | 56 | 192 | 0.0 | 0.0 | 0.00 | 0.00 | 0.00 | 36 | 1020.8 |
| 20260903143052 | 55 | 166 | 0.0 | 0.0 | 0.00 | 0.00 | 0.00 | 38 | 1020.8 |
| 20260903142552 | 54 | 166 | 0.0 | 0.0 | 0.00 | 0.00 | 0.00 | 40 | 1020.8 |
| 20260903142056 | 53 | 201 | 0.0 | 0.0 | 0.00 | 0.00 | 0.00 | 41 | 1020.8 |
| 20260903141557 | 53 | 218 | 0.0 | 0.0 | 0.00 | 0.00 | 0.00 | 42 | 1020.8 |
| 20260903141051 | 53 | 205 | 0.0 | 0.0 | 0.00 | 0.00 | 0.00 | 41 | 1020.8 |
| 20260903140551 | 54 | 205 | 0.0 | 1.0 | 0.00 | 0.00 | 0.00 | 41 | 1020.8 |
| 20260903140051 | 54 | 200 | 0.0 | 1.0 | 0.00 | 0.00 | 0.00 | 41 | 1020.8 |
| 20260903135550 | 53 | 209 | 0.0 | 0.0 | 0.00 | 0.00 | 0.00 | 42 | 1020.8 |
| 20260903135050 | 53 | 209 | 0.0 | 4.0 | 0.00 | 0.00 | 0.00 | 42 | 1020.7 |
| 20260903134550 | 53 | 220 | 0.0 | 4.0 | 0.00 | 0.00 | 0.00 | 42 | 1020.6 |
| 20260903134050 | 53 | 73 | 0.0 | 0.0 | 0.00 | 0.00 | 0.00 | 42 | 1020.7 |
| 20260903133549 | 54 | 73 | 0.0 | 0.0 | 0.00 | 0.00 | 0.00 | 42 | 1020.6 |
| 20260903133049 | 54 | 217 | 0.0 | 0.0 | 0.00 | 0.00 | 0.00 | 41 | 1020.5 |
| 20260903132549 | 54 | 216 | 0.0 | 0.0 | 0.00 | 0.00 | 0.00 | 40 | 1020.5 |
| 20260903132048 | 55 | 211 | 0.0 | 0.0 | 0.00 | 0.00 | 0.00 | 40 | 1020.6 |
| 20260903131548 | 55 | 202 | 0.0 | 0.0 | 0.00 | 0.00 | 0.00 | 40 | 1020.6 |
| 20260903131048 | 54 | 190 | 0.0 | 0.0 | 0.00 | 0.00 | 0.00 | 41 | 1020.4 |
| 20260903130549 | 54 | 114 | 0.0 | 0.0 | 0.00 | 0.00 | 0.00 | 41 | 1020.4 |
| 20260903130048 | 54 | 203 | 0.0 | 0.0 | 0.00 | 0.00 | 0.00 | 41 | 1020.4 |
| 20260903125547 | 54 | 203 | 0.0 | 0.0 | 0.00 | 0.00 | 0.00 | 41 | 1020.4 |
| 20260903125047 | 54 | 203 | 0.0 | 0.0 | 0.00 | 0.00 | 0.00 | 40 | 1020.4 |
| 20260903124559 | 54 | 185 | 0.0 | 0.0 | 0.00 | 0.00 | 0.00 | 40 | 1020.4 |
| 20260903124046 | 54 | 185 | 0.0 | 0.0 | 0.00 | 0.00 | 0.00 | 40 | 1020.4 |
| 20260903123546 | 54 | 185 | 0.0 | 1.0 | 0.00 | 0.00 | 0.00 | 39 | 1020.3 |
| 20260903123046 | 54 | 97 | 0.0 | 1.0 | 0.00 | 0.00 | 0.00 | 40 | 1020.3 |
| 20260903122547 | 54 | 198 | 0.0 | 0.0 | 0.00 | 0.00 | 0.00 | 40 | 1020.4 |
| 20260903122046 | 53 | 198 | 0.0 | 0.0 | 0.00 | 0.00 | 0.00 | 41 | 1020.4 |
| 20260903121548 | 53 | 223 | 0.0 | 0.0 | 0.00 | 0.00 | 0.00 | 40 | 1020.4 |
| 20260903121043 | 53 | 223 | 0.0 | 0.0 | 0.00 | 0.00 | 0.00 | 40 | 1020.5 |
| 20260903120545 | 54 | 224 | 0.0 | 0.0 | 0.00 | 0.00 | 0.00 | 40 | 1020.5 |
| 20260903120144 | 53 | 224 | 0.0 | 0.0 | 0.00 | 0.00 | 0.00 | 40 | 1020.5 |
| 20260903115543 | 54 | 224 | 0.0 | 0.0 | 0.00 | 0.00 | 0.00 | 39 | 1020.6 |
| 20260903115046 | 54 | 224 | 0.0 | 0.0 | 0.00 | 0.00 | 0.00 | 39 | 1020.6 |
| 20260903114556 | 54 | 224 | 0.0 | 0.0 | 0.00 | 0.00 | 0.00 | 39 | 1020.5 |
| 20260903114041 | 54 | 225 | 0.0 | 0.0 | 0.00 | 0.00 | 0.00 | 39 | 1020.6 |
| 20260903113542 | 54 | 225 | 0.0 | 0.0 | 0.00 | 0.00 | 0.00 | 39 | 1020.6 |
| 20260903113040 | 54 | 225 | 0.0 | 1.0 | 0.00 | 0.00 | 0.00 | 38 | 1020.6 |
| 20260903112539 | 55 | 173 | 0.0 | 3.0 | 0.00 | 0.00 | 0.00 | 37 | 1020.6 |
| 20260903112039 | 55 | 144 | 0.0 | 3.0 | 0.00 | 0.00 | 0.00 | 37 | 1020.7 |
| 20260903111540 | 56 | 165 | 0.0 | 2.0 | 0.00 | 0.00 | 0.00 | 37 | 1020.8 |
| 20260903111038 | 57 | 355 | 0.0 | 11.0 | 0.00 | 0.00 | 0.00 | 36 | 1020.8 |
| 20260903110538 | 57 | 135 | 3.0 | 11.0 | 0.00 | 0.00 | 0.00 | 36 | 1020.8 |
| 20260903110043 | 56 | 160 | 0.0 | 9.0 | 0.00 | 0.00 | 0.00 | 36 | 1020.8 |
| 20260903105540 | 58 | 74 | 0.0 | 9.0 | 0.00 | 0.00 | 0.00 | 34 | 1020.8 |
| 20260903105037 | 59 | 184 | 4.0 | 9.0 | 0.00 | 0.00 | 0.00 | 35 | 1020.8 |
| 20260903104538 | 59 | 158 | 1.0 | 9.0 | 0.00 | 0.00 | 0.00 | 35 | 1020.9 |
| 20260903104036 | 58 | 205 | 4.0 | 9.0 | 0.00 | 0.00 | 0.00 | 37 | 1020.8 |
| 20260903103535 | 56 | 173 | 2.0 | 9.0 | 0.00 | 0.00 | 0.00 | 39 | 1020.8 |
| 20260903103044 | 55 | 38 | 0.0 | 4.0 | 0.00 | 0.00 | 0.00 | 38 | 1020.8 |
| 20260903102533 | 55 | 101 | 0.0 | 5.0 | 0.00 | 0.00 | 0.00 | 37 | 1020.9 |
| 20260903102035 | 56 | 47 | 0.0 | 5.0 | 0.00 | 0.00 | 0.00 | 36 | 1020.8 |
| 20260903101541 | 57 | 35 | 0.0 | 3.0 | 0.00 | 0.00 | 0.00 | 34 | 1020.8 |
| 20260903101033 | 58 | 121 | 0.0 | 2.0 | 0.00 | 0.00 | 0.00 | 34 | 1020.8 |
| 20260903100533 | 58 | 180 | 0.0 | 6.0 | 0.00 | 0.00 | 0.00 | 34 | 1020.7 |
| 20260903100037 | 58 | 209 | 2.0 | 8.0 | 0.00 | 0.00 | 0.00 | 34 | 1020.6 |
| 20260903095531 | 58 | 182 | 4.0 | 9.0 | 0.00 | 0.00 | 0.00 | 34 | 1020.6 |
| 20260903095030 | 58 | 239 | 5.0 | 9.0 | 0.00 | 0.00 | 0.00 | 34 | 1020.5 |
| 20260903094531 | 58 | 188 | 3.0 | 7.0 | 0.00 | 0.00 | 0.00 | 34 | 1020.5 |
| 20260903094028 | 58 | 215 | 3.0 | 7.0 | 0.00 | 0.00 | 0.00 | 34 | 1020.7 |
| 20260903093534 | 58 | 188 | 3.0 | 7.0 | 0.00 | 0.00 | 0.00 | 33 | 1020.8 |
| 20260903093055 | 58 | 227 | 3.0 | 8.0 | 0.00 | 0.00 | 0.00 | 34 | 1020.8 |
| 20260903092529 | 58 | 192 | 5.0 | 8.0 | 0.00 | 0.00 | 0.00 | 34 | 1020.9 |
| 20260903092026 | 57 | 235 | 4.0 | 8.0 | 0.00 | 0.00 | 0.00 | 33 | 1021.0 |
| 20260903091525 | 57 | 223 | 1.0 | 5.0 | 0.00 | 0.00 | 0.00 | 33 | 1021.1 |
| 20260903091024 | 57 | 202 | 1.0 | 6.0 | 0.00 | 0.00 | 0.00 | 33 | 1021.2 |
| 20260903090524 | 57 | 205 | 1.0 | 6.0 | 0.00 | 0.00 | 0.00 | 33 | 1021.3 |
| 20260903090024 | 57 | 214 | 0.0 | 4.0 | 0.00 | 0.00 | 0.00 | 32 | 1021.3 |
| 20260903085522 | 58 | 227 | 0.0 | 4.0 | 0.00 | 0.00 | 0.00 | 32 | 1021.2 |
| 20260903085021 | 58 | 232 | 0.0 | 4.0 | 0.00 | 0.00 | 0.00 | 32 | 1021.3 |
| 20260903084521 | 58 | 223 | 0.0 | 4.0 | 0.00 | 0.00 | 0.00 | 32 | 1021.3 |
| 20260903084021 | 58 | 203 | 0.0 | 4.0 | 0.00 | 0.00 | 0.00 | 32 | 1021.3 |
| 20260903083521 | 58 | 216 | 0.0 | 4.0 | 0.00 | 0.00 | 0.00 | 31 | 1021.4 |
| 20260903083021 | 59 | 200 | 0.0 | 4.0 | 0.00 | 0.00 | 0.00 | 31 | 1021.3 |
| 20260903082522 | 58 | 210 | 1.0 | 4.0 | 0.00 | 0.00 | 0.00 | 32 | 1021.3 |
| 20260903082020 | 58 | 208 | 0.0 | 3.0 | 0.00 | 0.00 | 0.00 | 33 | 1021.4 |
| 20260903081529 | 57 | 167 | 0.0 | 1.0 | 0.00 | 0.00 | 0.00 | 34 | 1021.5 |
| 20260903081025 | 57 | 183 | 0.0 | 0.0 | 0.00 | 0.00 | 0.00 | 36 | 1021.6 |
| 20260903080524 | 56 | 182 | 0.0 | 0.0 | 0.00 | 0.00 | 0.00 | 37 | 1021.6 |
| 20260903080019 | 57 | 22 | 0.0 | 0.0 | 0.00 | 0.00 | 0.00 | 37 | 1021.6 |
| 20260903075518 | 57 | 22 | 0.0 | 0.0 | 0.00 | 0.00 | 0.00 | 37 | 1021.6 |
| 20260903075021 | 57 | 92 | 0.0 | 2.0 | 0.00 | 0.00 | 0.00 | 37 | 1021.6 |
| 20260903074517 | 58 | 28 | 0.0 | 4.0 | 0.00 | 0.00 | 0.00 | 36 | 1021.5 |
| 20260903074015 | 58 | 5 | 0.0 | 4.0 | 0.00 | 0.00 | 0.00 | 35 | 1021.5 |
| 20260903073514 | 58 | 9 | 1.0 | 4.0 | 0.00 | 0.00 | 0.00 | 34 | 1021.4 |
| 20260903073014 | 58 | 277 | 0.0 | 3.0 | 0.00 | 0.00 | 0.00 | 33 | 1021.3 |
| 20260903072513 | 58 | 211 | 0.0 | 1.0 | 0.00 | 0.00 | 0.00 | 33 | 1021.3 |
| 20260903072013 | 58 | 196 | 0.0 | 0.0 | 0.00 | 0.00 | 0.00 | 35 | 1021.3 |
| 20260903071015 | 58 | 209 | 1.0 | 6.0 | 0.00 | 0.00 | 0.00 | 34 | 1021.4 |
| 20260903070517 | 58 | 34 | 2.0 | 6.0 | 0.00 | 0.00 | 0.00 | 34 | 1021.3 |
| 20260903070010 | 59 | 18 | 0.0 | 0.0 | 0.00 | 0.00 | 0.00 | 34 | 1021.4 |
| 20260903065510 | 59 | 65 | 0.0 | 4.0 | 0.00 | 0.00 | 0.00 | 32 | 1021.2 |
| 20260903065010 | 60 | 147 | 0.0 | 6.0 | 0.00 | 0.00 | 0.00 | 30 | 1021.1 |
| 20260903064510 | 60 | 248 | 1.0 | 8.0 | 0.00 | 0.00 | 0.00 | 30 | 1020.9 |
| 20260903064009 | 60 | 251 | 2.0 | 7.0 | 0.00 | 0.00 | 0.00 | 29 | 1020.9 |
| 20260903063512 | 61 | 244 | 0.0 | 10.0 | 0.00 | 0.00 | 0.00 | 28 | 1020.8 |
| 20260903063011 | 61 | 202 | 3.0 | 10.0 | 0.00 | 0.00 | 0.00 | 28 | 1020.8 |
| 20260903062510 | 61 | 220 | 4.0 | 8.0 | 0.00 | 0.00 | 0.00 | 29 | 1020.8 |
| 20260903062010 | 60 | 194 | 1.0 | 5.0 | 0.00 | 0.00 | 0.00 | 30 | 1020.8 |
| 20260903061508 | 60 | 174 | 0.0 | 4.0 | 0.00 | 0.00 | 0.00 | 31 | 1020.8 |
| 20260903061010 | 61 | 203 | 0.0 | 8.0 | 0.00 | 0.00 | 0.00 | 30 | 1020.8 |
| 20260903060508 | 61 | 216 | 2.0 | 8.0 | 0.00 | 0.00 | 0.00 | 30 | 1020.8 |
| 20260903060014 | 61 | 188 | 3.0 | 10.0 | 0.00 | 0.00 | 0.00 | 32 | 1020.8 |
| 20260903055510 | 61 | 192 | 5.0 | 13.0 | 0.00 | 0.00 | 0.00 | 32 | 1020.8 |
| 20260903055008 | 61 | 230 | 6.0 | 13.0 | 0.00 | 0.00 | 0.00 | 32 | 1020.9 |
| 20260903054508 | 61 | 198 | 5.0 | 10.0 | 0.00 | 0.00 | 0.00 | 32 | 1021.0 |